Weather History for KDLS - August, 2013

Change the Weather History Date:

Monday, August 26, 2013

  Actual Average (KTTD) Record (KTTD)
Temperature  
Mean Temperature 70 °F 67 °F  
Max Temperature 82 °F 81 °F 103 °F (1986)
Min Temperature 57 °F 53 °F 42 °F (1955)
Degree Days  
Heating Degree Days 0 1  
Month to date heating degree days 26  
Cooling Degree Days 4 3  
Month to date cooling degree days 107  
Growing Degree Days 20 (Base 50)    
Moisture  
Dew Point 56 °F    
Average Humidity 75    
Maximum Humidity 100    
Minimum Humidity 38    
Precipitation  
Precipitation 0.00 in 0.04 in - ()
Month to date precipitation 0.64  
Year to date precipitation 26.50  
Sea Level Pressure  
Sea Level Pressure 29.91 in    
Wind  
Wind Speed 3 mph (WNW)    
Max Wind Speed 18 mph    
Max Gust Speed 24 mph    
Visibility 8 miles    
Events      
T = Trace of Precipitation, MM = Missing Value Source: NWS Daily Summary

Daily Weather History Graph

Daily Weather History Graph

Search for Another Location

Airport or City:

Trip Planner

Search our weather history database for the weather conditions in past years. The results will help you decide how hot, cold, wet, or windy it might be!

Date:

Astronomy

Aug. 26, 2013 Rise Set
Actual Time 6:18 AM PDT 7:52 PM PDT
Civil Twilight 5:47 AM PDT 8:23 PM PDT
Nautical Twilight 5:09 AM PDT 9:01 PM PDT
Astronomical Twilight 4:29 AM PDT 9:42 PM PDT
Moon 10:45 PM PDT (8/26) 12:46 PM PDT (8/26)
Length of Visible Light 14h 36m
Length of Day
13h 33m
Waning Gibbous, 65% of the Moon is Illuminated
Aug 26
Waning Gibbous
Aug 28
Last Quarter
Sep 5
New
Sep 12
First Quarter
Sep 19
Full

Hourly Weather History & Observations

Time (PDT) Temp. Heat Index Dew Point Humidity Pressure Visibility Wind Dir Wind Speed Gust Speed Precip Events Conditions
12:53 AM 60.1 °F - 57.9 °F 93% 29.90 in 10.0 mi Calm Calm - N/A   Clear
1:53 AM 57.9 °F - 55.9 °F 93% 29.90 in 2.5 mi Calm Calm - N/A   Clear
1:55 AM 57.2 °F - 55.4 °F 94% 29.90 in 3.0 mi Calm Calm - N/A   Partly Cloudy
2:05 AM 59.0 °F - 57.2 °F 94% 29.90 in 2.0 mi Calm Calm - N/A   Mostly Cloudy
2:11 AM 57.2 °F - 57.2 °F 100% 29.90 in 0.8 mi Calm Calm - N/A   Mostly Cloudy
2:24 AM 59.0 °F - 57.2 °F 94% 29.90 in 2.0 mi Calm Calm - N/A   Mostly Cloudy
2:34 AM 57.2 °F - 55.4 °F 94% 29.91 in 1.5 mi ESE 5.8 mph - N/A   Scattered Clouds
2:41 AM 57.2 °F - 55.4 °F 94% 29.91 in 3.0 mi ESE 5.8 mph - N/A   Partly Cloudy
2:53 AM 57.9 °F - 55.9 °F 93% 29.91 in 10.0 mi East 4.6 mph - N/A   Partly Cloudy
3:53 AM 57.9 °F - 57.0 °F 97% 29.92 in 10.0 mi Calm Calm - N/A   Overcast
4:13 AM 57.2 °F - 55.4 °F 94% 29.93 in 10.0 mi Calm Calm - N/A   Mostly Cloudy
4:53 AM 60.1 °F - 57.0 °F 90% 29.93 in 10.0 mi Calm Calm - N/A   Overcast
5:53 AM 60.1 °F - 57.0 °F 90% 29.94 in 10.0 mi Calm Calm - N/A   Overcast
6:53 AM 60.1 °F - 57.0 °F 90% 29.94 in 5.0 mi WSW 5.8 mph - N/A   Overcast
7:53 AM 60.1 °F - 57.9 °F 93% 29.94 in 5.0 mi Calm Calm - N/A   Overcast
8:53 AM 62.1 °F - 57.9 °F 86% 29.94 in 10.0 mi NNW 3.5 mph - N/A   Overcast
9:45 AM 62.6 °F - 57.2 °F 82% 29.94 in 10.0 mi South 4.6 mph - N/A   Overcast
9:53 AM 62.1 °F - 57.9 °F 86% 29.94 in 10.0 mi South 3.5 mph - N/A   Overcast
10:15 AM 62.6 °F - 59.0 °F 88% 29.94 in 10.0 mi Calm Calm - N/A   Overcast
10:53 AM 64.0 °F - 59.0 °F 84% 29.93 in 10.0 mi Calm Calm - N/A   Overcast
11:23 AM 66.2 °F - 59.0 °F 78% 29.93 in 10.0 mi NNW 4.6 mph - N/A   Overcast
11:53 AM 66.0 °F - 57.9 °F 75% 29.92 in 10.0 mi Calm Calm - N/A   Mostly Cloudy
12:53 PM 71.1 °F - 57.9 °F 63% 29.91 in 10.0 mi Calm Calm - N/A   Overcast
1:53 PM 73.0 °F - 57.9 °F 59% 29.90 in 10.0 mi NW 3.5 mph - 0.00 in   Scattered Clouds
2:53 PM 79.0 °F - 55.0 °F 44% 29.88 in 10.0 mi West 6.9 mph - N/A   Clear
3:53 PM 81.0 °F 80.7 °F 55.0 °F 41% 29.86 in 10.0 mi NW 8.1 mph - N/A   Partly Cloudy
4:53 PM 81.0 °F 80.7 °F 55.0 °F 41% 29.86 in 10.0 mi NNW 9.2 mph - N/A   Clear
5:53 PM 82.0 °F 81.3 °F 54.0 °F 38% 29.86 in 10.0 mi NW 9.2 mph - N/A   Clear
6:53 PM 79.0 °F - 54.0 °F 42% 29.87 in 10.0 mi WNW 9.2 mph - N/A   Clear
7:53 PM 75.0 °F - 51.1 °F 43% 29.88 in 10.0 mi West 16.1 mph - N/A   Clear
8:53 PM 73.0 °F - 48.9 °F 42% 29.90 in 10.0 mi NW 9.2 mph - N/A   Clear
9:53 PM 71.1 °F - 48.9 °F 45% 29.91 in 10.0 mi WNW 18.4 mph 24.2 mph N/A   Clear
10:53 PM 69.1 °F - 51.1 °F 53% 29.94 in 10.0 mi West 16.1 mph - N/A   Clear
11:53 PM 66.9 °F - 51.1 °F 57% 29.95 in 10.0 mi WSW 5.8 mph - N/A   Clear